TimeMDT,TemperatureF,Dew PointF,Humidity,Sea Level PressureIn,VisibilityMPH,Wind Direction,Wind SpeedMPH,Gust SpeedMPH,PrecipitationIn,Events,Conditions,WindDirDegrees,DateUTC
12:56 AM,55.9,43.0,62,30.00,10.0,Calm,Calm,-,N/A,,Clear,0,2013-07-19 06:56:00
1:56 AM,52.0,38.8,61,29.99,10.0,ENE,6.9,-,N/A,,Clear,70,2013-07-19 07:56:00
2:56 AM,52.0,43.0,71,29.99,10.0,Calm,Calm,-,N/A,,Clear,0,2013-07-19 08:56:00
3:56 AM,52.0,41.9,69,29.97,10.0,East,10.4,-,N/A,,Clear,100,2013-07-19 09:56:00
4:56 AM,50.9,41.9,71,29.98,10.0,SSW,3.5,-,N/A,,Clear,200,2013-07-19 10:56:00
5:56 AM,45.9,36.9,71,30.00,10.0,ENE,4.6,-,N/A,,Clear,60,2013-07-19 11:56:00
6:56 AM,52.9,38.8,59,30.00,10.0,ENE,8.1,-,N/A,,Clear,60,2013-07-19 12:56:00
7:56 AM,63.9,43.0,47,29.97,10.0,NNE,4.6,-,N/A,,Clear,30,2013-07-19 13:56:00
8:56 AM,70.0,50.9,51,29.99,10.0,ESE,3.5,-,N/A,,Clear,120,2013-07-19 14:56:00
9:56 AM,77.0,48.9,37,29.98,10.0,WNW,8.1,-,N/A,,Clear,300,2013-07-19 15:56:00
10:56 AM,79.9,39.9,24,29.98,10.0,NNW,5.8,-,N/A,,Clear,340,2013-07-19 16:56:00
11:56 AM,82.9,37.9,20,29.97,10.0,West,5.8,-,N/A,,Clear,270,2013-07-19 17:56:00
12:56 PM,83.8,37.9,20,29.97,10.0,NNW,5.8,-,N/A,,Clear,330,2013-07-19 18:56:00
1:56 PM,86.9,36.0,16,29.96,10.0,WNW,8.1,-,N/A,,Clear,300,2013-07-19 19:56:00
2:56 PM,88.0,37.9,17,29.94,10.0,NW,12.7,17.3,N/A,,Clear,310,2013-07-19 20:56:00
3:56 PM,88.9,34.9,15,29.92,10.0,North,8.1,-,N/A,,Clear,360,2013-07-19 21:56:00
4:56 PM,88.0,30.0,12,29.92,10.0,NW,10.4,-,N/A,,Clear,310,2013-07-19 22:56:00
5:56 PM,88.0,26.1,11,29.92,10.0,NNW,4.6,-,N/A,,Clear,340,2013-07-19 23:56:00
6:56 PM,86.0,31.1,14,29.89,10.0,NW,3.5,-,N/A,,Clear,310,2013-07-20 00:56:00
7:56 PM,83.8,34.9,17,29.86,10.0,WNW,3.5,-,N/A,,Clear,300,2013-07-20 01:56:00
8:56 PM,72.9,46.9,40,29.87,10.0,ESE,5.8,-,N/A,,Clear,110,2013-07-20 02:56:00
9:56 PM,64.9,37.9,37,29.89,10.0,East,10.4,-,N/A,,Clear,80,2013-07-20 03:56:00
10:56 PM,63.0,41.9,46,29.89,10.0,West,3.5,-,N/A,,Clear,260,2013-07-20 04:56:00
11:56 PM,54.9,36.9,51,29.90,10.0,ENE,3.5,-,N/A,,Clear,70,2013-07-20 05:56:00